Regional Weather Roundup
Issued by NWS

Home | Current Version | Previous Version | Text Only | Print | Product List | Glossary Off
Versions: 1 2 3 4 5 6 7 8 9 10 11 12 13 14 15 16 17 18 19 20 21 22 23 24 25 26 27 28 29 30 31 32 33 34 35 36 37 38

000
ASUS45 KCYS 220110
RWRWY

WYOMING REGIONAL WEATHER ROUNDUP
NATIONAL WEATHER SERVICE CHEYENNE WY
700 PM MDT TUE OCT 21 2014

NOTE:  "FAIR" INDICATES FEW OR NO CLOUDS BELOW 12,000 FEET
WITH NO SIGNIFICANT WEATHER AND/OR OBSTRUCTIONS TO VISIBILITY.

WYZ001-220200-
YELLOWSTONE NATIONAL PARK

CITY           SKY/WX    TMP DP  RH WIND       PRES   REMARKS
LK YELLOWSTONE   N/A     35  27  72 CALM      30.07R
W YELLOWSTONE  NOT AVBL

$$
WYZ002>013-054>058-071-098>099-220200-
NORTHERN WYOMING

CITY           SKY/WX    TMP DP  RH WIND       PRES   REMARKS
JACKSON        PTCLDY    41  28  60 S8        30.05R
CODY           PTCLDY   N/A N/A N/A W14G23    29.91R
GREYBULL       MOCLDY    63  26  24 NW10G24   29.81R
WORLAND        LGT RAIN  64  29  26 SW14      29.82R
SHERIDAN       MOCLDY    70  34  26 W15       29.72R
BUFFALO        CLOUDY    64  31  28 VRB3      29.79R
GILLETTE       CLOUDY    67  36  31 SW15      29.75R
HULETT         FAIR      68  36  30 S10G16    29.75
NEWCASTLE      FAIR      64  34  32 MISG      29.79

$$
WYZ014>020-022>026-101>103-220200-
CENTRAL WYOMING

CITY           SKY/WX    TMP DP  RH WIND       PRES   REMARKS
BIG PINEY      PTCLDY    41  26  55 N13       30.05R
PINEDALE       MOCLDY    37  30  75 W6        30.06R WCI  33
DUBOIS         FAIR      37  19  48 W18       30.02R WCI  27
LANDER         PTCLDY    57  30  35 W7        29.90R
RIVERTON       MOCLDY    58  34  40 NW13      29.91R
CASPER         MOCLDY    59  34  39 W23G31    29.91R
DOUGLAS        CLOUDY    65  38  36 SW7       29.88R

$$
WYZ021-027>030-104>119-220200-
SOUTHERN WYOMING

CITY           SKY/WX    TMP DP  RH WIND       PRES   REMARKS
EVANSTON       CLOUDY    46  21  37 W12       30.08R
KEMMERER       PTCLDY    41  28  60 W12G23    30.06R
FORT BRIDGER   CLOUDY    47  27  44 NW13G22   30.09R
ROCK SPRINGS   CLOUDY    49  36  61 NW14      30.04R
DIXON          FAIR      53  41  63 E3        30.03R
RAWLINS        MOCLDY    48  41  76 NW14      30.03R
SARATOGA       FAIR      50  37  62 SE13      30.03S
LARAMIE        CLOUDY    51  37  58 W10       30.04R
CHEYENNE       CLOUDY    60  37  42 NW10      29.97S
TORRINGTON     CLOUDY    64  44  48 SE6       29.86R
PINE BLUFFS    FAIR      61  36  39 W9        29.93R

$$



USA.gov is the U.S. government's official web portal to all federal, state and local government web resources and services.